Tracking 18850 objects as of 22-Nov-2017
HD Live streaming from Space Station
objects crossing your sky now

FENGYUN 1C DEB

Track FENGYUN 1C DEB now!
10-day predictions


NORAD ID: 29845
Int'l Code: 1999-025EP
Perigee: 767.3 km
Apogee: 887.8 km
Inclination: 98.7 °
Period: 101.3 minutes
Semi major axis: 7198 km
RCS: 0.047 m2 (small)
Launch date: May 10, 1999
Source: People's Republic of China (PRC)
Launch site: Taiyaun Space Center, China (TSC)

Note: This is SATELLITE DEBRIS
aabbcc
Your satellite tracking list
Your tracking list is empty




NASA's NSSDC Master Catalog

Two Line Element Set (TLE):
1 29845U 99025EP  17325.62814506  .00000235  00000-0  12306-3 0  9998
2 29845  98.7103 358.3131 0083744  39.3654  77.1931 14.21458852562638
Source of the keplerian elements: AFSPC